Location: Igri�s
(42.2144°N, 0.4320°W)
Time: 18:13:54
(UTC+00:00)

Landsat 7 - Pass Details

Date: 13 August 2020
Orbit: 701 x 703 km, 98.1° (Epoch: 18 September)

Event Time Altitude Azimuth Distance (km) Brightness Sun altitude
Exits shadow 21:27:38 42° 198° (SSW) 1,002 4.3 -22.7°
Maximum altitude 21:29:04 62° 259° (W) 791 4.1 -22.9°
Drops below altitude 10° 21:33:48 10° 340° (NNW) 2,178 7.3 -23.5°
Sets 21:36:06 0° 344° (NNW) 3,101 8.2 -23.7°
